Location: Bougoudala
(13.2282°N, 4.9477°W)
Time: 00:55:30
(UTC+00:00)

ADEOS Rocket - Pass Details

Date: 29 January 2020
Orbit: 859 x 1306 km, 98.7° (Epoch: 20 February)

Event Time Altitude Azimuth Distance (km) Brightness Sun altitude
Rises 19:04:48 0° 11° (N) 4,102 6.0 -11.5°
Reaches altitude 10° 19:07:21 10° 11° (N) 3,184 5.4 -12.1°
Maximum altitude 19:14:49 86° 284° (WNW) 1,291 3.6 -13.8°
Drops below altitude 10° 19:22:37 10° 195° (SSW) 3,317 6.2 -15.7°
Sets 19:25:19 0° 194° (SSW) 4,281 6.8 -16.3°
